Orbital Elements at Epoch 2459200.5 (2020-Dec-17.0) TDB
Reference: JPL 14 (heliocentric ecliptic J2000)
Element | Value | Uncertainty (1-sigma) | Units |
e | .1960915357065296 | 3.8489e-08 | |
a | 2.26306483854649 | 1.1896e-08 | au |
q | 1.81929697895246 | 8.304e-08 | au |
i | 6.581726834711876 | 5.5714e-06 | deg |
node | 113.9057549599885 | 5.5382e-05 | deg |
peri | 223.0404967982287 | 5.926e-05 | deg |
M | 163.8294742696402 | 2.1068e-05 | deg |
tp | 2458634.608123993596 (2019-May-31.10812399) | 7.2206e-05 | TDB |
period | 1243.494653636069 3.40 | 9.8045e-06 2.684e-08 | d yr |
n | .2895066729457452 | 2.2827e-09 | deg/d |
Q | 2.706832698140521 | 1.4228e-08 | au |
|
| | Orbit Determination Parameters
Additional Information
|